User: anonymous   Login
Location: Chiroubles
(46.1812°N, 4.6660°E)
Time: 19:17:32
(UTC+00:00)
Language:

Meteor 1-18 Rocket - Orbit

View from above orbital plane
View from above orbital plane
View from above satellite
View from above satellite

Ground track
Ground track

The orbit data is extracted from the following two-line orbital elements,

1  7364U 74052B   20295.29306795 -.00000035 +00000-0 -28180-4 0  9990
2  7364 081.2350 044.5992 0048671 311.4062 048.2927 14.06031758372860
Epoch (UTC): 21 October 2020 07:02:01
Eccentricity: 0.0048671
inclination: 81.2350°
perigee height: 837 km
apogee height: 908 km
right ascension of ascending node: 44.5992°
argument of perigee: 311.4062°
revolutions per day: 14.06031758
mean anomaly at epoch: 48.2927°
orbit number at epoch: 37286

The dashed part of the orbit path shows where the satellite is in the earth's shadow,  

DLR